{"data":{"norad_id":57248,"intl_designator":"2023-094AG","name":"STARLINK-5514","alt_names":[],"object_type":"PAYLOAD","status":"ACTIVE","operator":null,"country":"US","launch_date":"2023-07-07","launch_site_code":"AFWTR","launch_vehicle":null,"mission":null,"orbit_class":"UNKNOWN","rcs_meters":null,"size_class":null,"mass_kg":null,"dimensions":null,"purposes":["comms"],"wikipedia_slug":null,"has_3d_model":false,"image_url":null,"decayed_at":null,"tle_current":{"epoch":"2026-09-20T17:42:58.567104Z","epoch_age_seconds":103731,"freshness":"FRESH","line1":"1 57248U 23094AG  26263.73817786  .00000834  00000+0  39851-4 0  9994","line2":"2 57248  43.0045 358.0533 0002077 272.2002  87.8612 15.27575765177076","mean_motion":15.27575765,"eccentricity":0.0002077,"inclination_deg":43.0045,"raan_deg":358.0533,"arg_perigee_deg":272.2002,"mean_anomaly_deg":87.8612,"bstar":3.9851e-5,"rev_number":17707,"period_min":94.267010055635,"perigee_km":481.63670619646,"apogee_km":484.48684816851,"semimajor_km":6861.1987771825,"source":"CELESTRAK","updated_at":"2026-09-21T09:00:33.590505Z"}}}